Home   Weather   Guayaquil   Past weeks

Flag for Ecuador Past Weather in Guayaquil, Ecuador — Yesterday and Last 2 Weeks

Now
73 °F

Passing clouds.


Feels Like: 74 °F
Forecast: 71 / 90 °F
Wind: 8 mph from Southwest

Location: Guayaquil / Simon Bolivar

Current Time: Sep 28, 2016 at 5:18:19 AM

Latest Report: Sep 28, 2016 at 4:00 AM


Visibility: N/A

Pressure: 29.86 "Hg

Humidity: 78%

Dew Point: 66 °F

Location of GuayaquilLocation

Past Weather in Guayaquil — Graph

°F

Guayaquil Temperature Yesterday

Maximum temperature yesterday: 82 °F (at 1:00 PM)
Minimum temperature yesterday: 73 °F (at 12:00 AM)
Average temperature yesterday: 77 °F

High & Low Weather Summary for the Past Weeks

 TemperatureHumidityPressure
High90 °F (Sep 22, 3:00 PM)88% (Sep 14, 10:00 PM)30.07 "Hg (Sep 14, 10:00 PM)
Low55 °F (Sep 14, 10:00 PM)49% (Sep 22, 3:00 PM)29.71 "Hg (Sep 18, 4:00 PM)
Average78 °F71%29.86 "Hg
* Reported Sep 13 4:00 AM — Sep 28 4:00 AM, Guayaquil, Weather by CustomWeather, © 2016

Note: Actual official high and low records may vary slightly from our data, if they occured in-between our weather recording intervals... More about our weather records

Advertising

Guayaquil Weather History for the Previous 24 Hours

Scroll right to see more
 ConditionsComfort  
Time TempWeatherWind HumidityBarometerVisibility
4:00 AM
Wed, Sep 28
73 °FPassing clouds.8 mph78%29.86 "HgN/A
3:00 AM73 °FPassing clouds.3 mph78%29.86 "HgN/A
2:00 AM73 °FClear.2 mph78%29.86 "Hg10 mi
1:00 AM73 °FPassing clouds.7 mph78%29.89 "HgN/A
12:00 AM73 °FPassing clouds.9 mph78%29.92 "HgN/A
11:00 PM
Tue, Sep 27
73 °FPassing clouds.14 mph78%29.92 "HgN/A
10:00 PM73 °FPassing clouds.12 mph83%29.92 "HgN/A
9:00 PM75 °FPassing clouds.12 mph78%29.89 "HgN/A
8:00 PM75 °FPassing clouds.14 mph78%29.86 "HgN/A
7:00 PM79 °FPassing clouds.14 mph70%29.83 "HgN/A
6:00 PM81 °FPartly sunny.7 mph66%29.80 "HgN/A
5:00 PM82 °FScattered clouds.8 mph62%29.80 "HgN/A
4:00 PM82 °FPartly sunny.10 mph62%29.80 "HgN/A
3:00 PM82 °FMostly cloudy.9 mph62%29.80 "HgN/A
2:00 PM82 °FPartly sunny.8 mph62%29.80 "HgN/A
1:00 PM82 °FPartly sunny.9 mph62%29.83 "HgN/A
12:00 PM81 °FPartly sunny.7 mph70%29.86 "HgN/A
11:00 AM81 °FPartly sunny.6 mph66%29.86 "HgN/A
10:00 AM81 °FBroken clouds.10 mph66%29.89 "HgN/A
9:00 AM79 °FPartly sunny.8 mph70%29.89 "HgN/A
8:00 AM75 °FPartly sunny.9 mph74%29.89 "HgN/A
7:00 AM73 °FPartly sunny.6 mph78%29.86 "HgN/A
6:00 AM73 °FMostly cloudy.7 mph78%29.86 "HgN/A
5:00 AM73 °FPassing clouds.7 mph78%29.86 "HgN/A
Weather by CustomWeather, © 2016

See weather overviewHow to use our weather pages